Tracking 29591 objects as of 19-Sep-2024
HD Live streaming from Space Station
objects crossing your sky now

SL-12 DEB

Track SL-12 DEB now!
10-day predictions


NORAD ID: 41562
Int'l Code: 2008-067L
Perigee: 816.5 km
Apogee: 18,846.7 km
Inclination: 65.4 °
Period: 342.1 minutes
Semi major axis: 16202 km
RCS: Unknown
Launch date: December 25, 2008
Source: Commonwealth of Independent States (former USSR) (CIS)
Launch site: TYURATAM MISSILE AND SPACE COMPLEX (TTMTR)

Note: This is SATELLITE DEBRIS
Your satellite tracking list
Your tracking list is empty




NASA's NSSDC Master Catalog

Two Line Element Set (TLE):
1 41562U 08067L   24252.45812981  .00000182  00000-0  31504-2 0  9998
2 41562  65.4274  64.2529 5564003 275.8776  26.5718  4.20945093129749
Source of the keplerian elements: AFSPC